sat.trackr.live / text

‹ back to catalog

STARLINK-34557

NORAD 64726 · 2025-144C

PAYLOAD ACTIVE UNKNOWN

§ Identity

Operator
Country
US
Launch date
2025-07-02
Launch site
AFETR
Launch vehicle
Mass (kg)
RCS (m²)

Purposes: comms

External: N2YO · Heavens-Above · Gunter

§ Orbital elements

Epoch: 2026-09-20T12:12:33.414912Z

Period
93.85 min
Inclination
53.1610°
Eccentricity
0.0000973
Mean motion
15.34403056 rev/d
Perigee alt
462.0 km
Apogee alt
463.4 km
Semi-major
6,840.8 km
B*
3.7760e-4
RAAN
353.7118°
Arg perigee
98.2266°
Mean anomaly
261.8847°
Rev number
6,957

§ Raw data

STARLINK-345571 64726U 25144C   26263.50872008  .00012404  00000+0  37760-3 0  99962 64726  53.1610 353.7118 0000973  98.2266 261.8847 15.34403056 69577

JSON: /api/v1/satellites/64726 · /tle

For live sub-satellite position, see the globe view (requires WebGL).

§ Visibility from observer

Set your observer location to see the next 7 days of passes ≥ 10°. The values pass through the URL so the page stays shareable.

No JS? Fill the form by hand. The geolocation button needs JavaScript.